sat.trackr.live / text

‹ back to catalog

LEMUR-2-LUCILLE-ROSE

NORAD 65403 · 2025-135BV

PAYLOAD ACTIVE UNKNOWN

§ Identity

Operator
Country
US
Launch date
2025-06-23
Launch site
AFWTR
Launch vehicle
Mass (kg)
RCS (m²)

Purposes: earth_obs

External: N2YO · Heavens-Above · Gunter

§ Orbital elements

Epoch: 2026-05-24T19:27:10.475424Z

Period
96.01 min
Inclination
97.7732°
Eccentricity
0.0011035
Mean motion
14.99775827 rev/d
Perigee alt
559.9 km
Apogee alt
575.3 km
Semi-major
6,945.7 km
B*
5.9298e-4
RAAN
261.0572°
Arg perigee
11.7673°
Mean anomaly
348.3806°
Rev number
4,513

§ Raw data

LEMUR-2-LUCILLE-ROSE1 65403U 25135BV  26144.81053791  .00007283  00000+0  59298-3 0  99902 65403  97.7732 261.0572 0011035  11.7673 348.3806 14.99775827 45137

JSON: /api/v1/satellites/65403 · /tle

For live sub-satellite position, see the globe view (requires WebGL).

§ Visibility from observer

Set your observer location to see the next 7 days of passes ≥ 10°. The values pass through the URL so the page stays shareable.

No JS? Fill the form by hand. The geolocation button needs JavaScript.